Location: Altenst�hlen
(53.5567°N, 8.9425°E)
Time: 21:59:41
(UTC+00:00)

ATLAS CENTAUR R/B - Pass Details

Date: 23 October 2019
Orbit: 456 x 692 km, 64.6° (Epoch: 31 October)

Event Time Altitude Azimuth Distance (km) Brightness Sun altitude
Rises 16:49:33 0° 304° (NW) 3,018 5.9 -6.4°
Reaches altitude 10° 16:52:23 10° 319° (NW) 2,070 4.7 -6.8°
Maximum altitude 16:56:06 23° 11° (NNE) 1,368 3.1 -7.4°
Drops below altitude 10° 16:59:38 10° 64° (ENE) 1,958 3.5 -7.9°
Enters shadow 16:59:50 - 66° (ENE) 2,020 3.6 -7.9°
